SL-16 DEB

Satellite information

Favourite Embed

Satellite Type and Status

DEBRISIN ORBIT

Key statistics

Satellite SL-16 DEB at a glance.

Uptime

11937

Days in orbit

Revolutions

≈ 14.0

Per day

Orbit

LEO

Low Earth Orbit

Inclination

70.8

Latest

Satellite identification and parameters

Extended collection of information and parameters for SL-16 DEB.

Object identification

Identified? True

Debris? True

Object name: SL-16 DEB

International designator: 1992-093BQ

Object number (NORAD): 22375

Object ID (CCSDS): 22375

Country: COMMONWEALTH OF INDEPENDENT STATES (CIS)

Current information (Y/N): Y

RCS size: MEDIUM

Orbital parameters

Period: 102.75 minutes

Inclination: 70.817 deg

SMA: 7266.899 km

Apoapsis: 952.157 km

Periapsis: 825.37 km

RAAN: 27.4317 deg

Eccentricy: 0.0087236

Argument of periapsis: 115.6059 deg

Mean anomaly: 357.6396 deg

Mean motion: 14.01454805 rev/day

Mean motion (dot): 0.00000232 rev/day2

B* drag term: 0.00017890699 1/REarth

Two-line elements (TLE)

Creation date: Aug. 31, 2025, 2:26 a.m.

Reference frame: TEME

Reference center: EARTH

Epoch: Aug. 30, 2025, 7:28 p.m. UTC

TLE line 0: 0 SL-16 DEB

TLE line 1: 1 22375U 92093BQ 25242.81120419 .00000232 00000-0 17891-3 0 9999

TLE line 2: 2 22375 70.8170 27.4317 0087236 115.6059 357.6396 14.01454805668383

Live tracking on map

Real-time ground track for satellite SL-16 DEB.

In-orbit conjunctions

A list of the most updated potential collisions computed for object SL-16 DEB.

Target Orbit TCA Probability of collision Miss distance Type
RESURS O1 DEB SSO 2025-08-28 04:04:52 0.0002753523 23.0 (m) DEBRIS
CZ-6A DEB LEO 2025-01-15 22:56:57 0.0002381829 836.0 (m) DEBRIS
NOAA 16 DEB SSO 2024-12-05 17:29:26 0.0001897753 209.0 (m) DEBRIS

Associated space launch

Second generation ELING satellite

SL-16 DEB was lifted into orbit during the mission ‘Zenit-2 | Tselina-2 12’, on board a Zenit-2 space rocket.

The launch took place on Dec. 25, 1992, 5:56 a.m. from 45/1.

For more information about the launch, click the button.

Launch to space Zenit-2 | Tselina-2 12
Zenit-2 | Tselina-2 12

Agency: N/A

Status: Launch Successful

Launch date: Dec. 25, 1992, 5:56 a.m. UTC

Rocket: Zenit-2

Launch pad: 45/1

Location: Baikonur Cosmodrome, Republic of Kazakhstan

...

Latest news about this satellite

There are no fresh news available about this satellite. Check back as we update our databases every day.


Newsletter sign-up

Weekly statistics, charts and insights to help you stay on top of the space industry.